Location: Amsterdam
(30.7274°N, 84.4357°W)
Time: 22:09:23
(UTC+00:00)

Tiros 1 despin weight - Pass Details

Date: 24 February 2026
Orbit: 556 x 593 km, 48.2° (Epoch: 9 March)

Event Time Altitude Azimuth Distance (km) Brightness Sun altitude
Rises 15:24:13 0° 181° (S) 2,772 ? 36.7°
Reaches altitude 10° 15:27:56 10° 148° (SSE) 1,868 ? 37.3°
Maximum altitude 15:29:25 12° 128° (SE) 1,764 ? 37.5°
Drops below altitude 10° 15:30:53 10° 108° (ESE) 1,863 ? 37.8°
Sets 15:34:34 0° 75° (ENE) 2,754 ? 38.3°
